Regional Weather Roundup
Issued by NWS

Home | Current Version | Previous Version | Graphics & Text | Print | Product List | Glossary On
Versions: 1 2 3 4 5 6 7 8 9 10 11 12 13 14 15 16 17 18 19 20 21 22 23 24 25 26 27 28 29 30 31 32 33 34 35 36 37 38 39 40 41 42 43 44 45 46 47 48 49 50
530
ASUS43 KTOP 262108
RWRKS

WEATHER ROUNDUP FOR KANSAS
NATIONAL WEATHER SERVICE GOODLAND KS
400 PM CDT TUE JUL 26 2016

NOTE:  "FAIR" INDICATES FEW OR NO CLOUDS BELOW 12,000 FEET WITH NO
SIGNIFICANT WEATHER AND/OR OBSTRUCTIONS TO VISIBILITY.

KSZ001>006-013>018-027>032-041>047-262200-
NORTHWEST KANSAS

CITY           SKY/WX    TMP DP  RH WIND       PRES   REMARKS
GOODLAND       SUNNY     90  65  43 S15G24    30.04F
HAYS           MOSUNNY   88  66  48 S10       30.01F
HILL CITY      SUNNY     89  66  46 SE12G18   30.01F
RUSSELL        SUNNY     90  65  43 E12       30.00F
$$

KSZ061>065-074>080-084>089-262200-
SOUTHWEST KANSAS

CITY           SKY/WX    TMP DP  RH WIND       PRES   REMARKS
DODGE CITY     SUNNY     88  66  48 SE10      30.03F
ELKHART          N/A     94  66  39 S9          N/A  HX  97
GARDEN CITY    MOSUNNY   86  70  58 SE14      30.04F
GREAT BEND     MOSUNNY   88  66  48 SE10      30.00F
LIBERAL        PTSUNNY   90  70  51 SE13      30.03F HX  95
PRATT          SUNNY     86  63  46 E9        30.01F
$$

KSZ066>073-081>083-090>101-262200-
SOUTHEAST KANSAS

CITY           SKY/WX    TMP DP  RH WIND       PRES   REMARKS
CHANUTE        CLOUDY    87  73  62 NE7       29.96F
COFFEYVILLE    LGT RAIN  81  79  94 W6        29.94F
HUTCHINSON     MOSUNNY   90  69  50 SE8       29.99F
MEDICINE LODGE   N/A     92  63  38 N6        29.96F
NEWTON         MOSUNNY   85  72  65 E8        30.00F
PARSONS        CLOUDY    88  75  65 VRB5      29.96F HX  97
WICHITA INTL   PTSUNNY   90  70  51 VRB3      29.97F HX  95
WICHITA JABRA  MOSUNNY   87  72  60 E8        29.98F
WICHITA MCCONL SUNNY     88  71  57 E6        29.98F
WINFIELD       PTSUNNY   87  70  56 E7        29.97F
$$

KSZ007>012-019>026-033>040-048>060-102>105-262200-
NORTHEAST KANSAS

CITY           SKY/WX    TMP DP  RH WIND       PRES   REMARKS
CONCORDIA      SUNNY     86  67  52 SE10      30.01F
EMPORIA        MOSUNNY   85  69  58 E9        30.00F
LAWRENCE       SUNNY     88  67  49 E6        29.98F
MANHATTAN      SUNNY     88  70  55 VRB5      29.99F
MARYSVILLE     SUNNY     88  64  45 SE7       30.00F
OLATHE IND     SUNNY     88  66  48 E9        30.00F
OLATHE EXE     SUNNY     86  67  52 E10       30.00F
SALINA         MOSUNNY   91  68  46 SE5       29.99F HX  95
TOPEKA BILLARD SUNNY     89  67  47 E7        29.99F
TOPEKA FORBES  SUNNY     89  67  47 SE6       29.99F
$$




USA.gov is the U.S. government's official web portal to all federal, state and local government web resources and services.